Siemreap, Cambodia

12:21 PM ICT on January 23, 2017 (GMT +0700)
Siemreap

Weather History for 48966 - May, 2014

Change the Weather History Date:

Thursday, May 1, 2014

  Actual Average Record
Temperature  
Mean Temperature 88 °F -  
Max Temperature 96 °F - - ()
Min Temperature 80 °F - - ()
Cooling Degree Days 23    
Growing Degree Days 38 (Base 50)    
Moisture  
Dew Point 75 °F    
Average Humidity 66    
Maximum Humidity 94    
Minimum Humidity 39    
Precipitation  
Precipitation 0.00 in - - ()
Sea Level Pressure  
Sea Level Pressure 29.74 in    
Wind  
Wind Speed 5 mph ()    
Max Wind Speed 9 mph    
Max Gust Speed -    
Visibility 6.2 miles    
Events      
T = Trace of Precipitation, MM = Missing Value Source: Averaged Metar Reports

Daily Weather History Graph

Daily Weather History Graph

Search for Another Location

Airport or City:

Trip Planner

Search our weather history database for the weather conditions in past years. The results will help you decide how hot, cold, wet, or windy it might be!

Date:

Astronomy

May. 01, 2014 Rise Set
Actual Time 5:43 AM ICT 6:20 PM ICT
Civil Twilight 5:21 AM ICT 6:42 PM ICT
Nautical Twilight 4:55 AM ICT 7:08 PM ICT
Astronomical Twilight 4:29 AM ICT 7:34 PM ICT
Moon 7:13 AM ICT (5/1) 8:15 PM ICT (5/1)
Length of Visible Light 13h 20m
Length of Day
12h 36m
Waxing Crescent, 4% of the Moon is Illuminated
May 1
Waxing Crescent
May 7
First Quarter
May 15
Full
May 21
Last Quarter
May 29
New

Hourly Weather History & Observations

Time (ICT) Temp. Heat Index Dew Point Humidity Pressure Visibility Wind Dir Wind Speed Gust Speed Precip Events Conditions
12:00 AM 82.4 °F 92.4 °F 78.8 °F 89% 29.77 in 5.6 mi South 4.6 mph - N/A   Scattered Clouds
12:30 AM 82.4 °F 92.4 °F 78.8 °F 89% 29.77 in 5.6 mi WSW 1.2 mph - N/A   Scattered Clouds
7:00 AM 80.6 °F 88.1 °F 78.8 °F 94% 29.77 in - ESE 6.9 mph - N/A   Clear
7:30 AM 82.4 °F 92.4 °F 78.8 °F 89% 29.77 in - SE 8.1 mph - N/A   Clear
8:00 AM 82.4 °F 92.4 °F 78.8 °F 89% 29.80 in - SE 5.8 mph - N/A   Clear
8:30 AM 86.0 °F 99.3 °F 78.8 °F 79% 29.80 in - South 5.8 mph - N/A   Clear
9:00 AM 86.0 °F 99.3 °F 78.8 °F 79% 29.80 in - South 5.8 mph - N/A   Clear
9:30 AM 86.0 °F 99.3 °F 78.8 °F 79% 29.80 in - SSW 3.5 mph - N/A   Clear
10:00 AM 89.6 °F 99.8 °F 75.2 °F 62% 29.83 in 6.2 mi SE 4.6 mph - N/A   Scattered Clouds
10:30 AM 89.6 °F 99.8 °F 75.2 °F 62% 29.80 in 6.2 mi SSE 4.6 mph - N/A   Scattered Clouds
11:00 AM 91.4 °F 102.5 °F 75.2 °F 59% 29.80 in 6.2 mi SSE 4.6 mph - N/A   Scattered Clouds
11:30 AM 91.4 °F 102.5 °F 75.2 °F 59% 29.77 in 6.2 mi SSE 6.9 mph - N/A   Scattered Clouds
12:00 PM 93.2 °F 105.0 °F 75.2 °F 56% 29.77 in 6.2 mi SSW 6.9 mph - N/A   Scattered Clouds
12:30 PM 95.0 °F 107.4 °F 75.2 °F 53% 29.74 in 6.2 mi WSW 9.2 mph - N/A   Scattered Clouds
1:00 PM 95.0 °F 103.2 °F 71.6 °F 47% 29.74 in 6.2 mi SW 6.9 mph - N/A   Scattered Clouds
1:30 PM 95.0 °F 101.3 °F 69.8 °F 44% 29.71 in 6.2 mi South 8.1 mph - N/A   Scattered Clouds
2:00 PM 95.0 °F 101.3 °F 69.8 °F 44% 29.71 in 6.2 mi SSW 4.6 mph - N/A   Partly Cloudy
2:30 PM 96.8 °F 103.1 °F 69.8 °F 41% 29.68 in 6.2 mi WSW 4.6 mph - N/A   Partly Cloudy
3:00 PM 96.8 °F 101.8 °F 68.0 °F 39% 29.68 in 6.2 mi South 9.2 mph - N/A   Partly Cloudy
3:30 PM 96.8 °F 101.8 °F 68.0 °F 39% 29.65 in 6.2 mi ESE 4.6 mph - N/A   Partly Cloudy
4:00 PM 96.8 °F 101.8 °F 68.0 °F 39% 29.65 in 6.2 mi South 4.6 mph - N/A   Partly Cloudy
4:30 PM 95.0 °F 99.5 °F 68.0 °F 41% 29.65 in 6.2 mi SSW 4.6 mph - N/A   Partly Cloudy
5:00 PM 95.0 °F 99.5 °F 68.0 °F 41% 29.65 in 6.2 mi South 6.9 mph - N/A   Scattered Clouds
5:30 PM 93.2 °F 100.5 °F 71.6 °F 49% 29.65 in 6.2 mi South 8.1 mph - N/A   Scattered Clouds
6:00 PM 89.6 °F 102.2 °F 77.0 °F 66% 29.65 in 6.2 mi WSW 8.1 mph - N/A   Scattered Clouds
6:30 PM 87.8 °F 99.7 °F 77.0 °F 70% 29.68 in 6.2 mi SW 4.6 mph - N/A   Scattered Clouds
7:00 PM 87.8 °F 102.5 °F 78.8 °F 75% 29.68 in 6.2 mi SSW 2.3 mph - N/A   Scattered Clouds
7:30 PM 87.8 °F 99.7 °F 77.0 °F 70% 29.71 in 6.2 mi SSE 2.3 mph - N/A   Scattered Clouds
8:00 PM 84.2 °F 94.1 °F 77.0 °F 79% 29.74 in 6.2 mi WSW 9.2 mph - N/A   Scattered Clouds
8:30 PM 82.4 °F 89.5 °F 75.2 °F 79% 29.74 in 6.2 mi WSW 4.6 mph - N/A   Scattered Clouds
10:00 PM 82.4 °F 89.5 °F 75.2 °F 79% 29.77 in 6.2 mi Variable 1.2 mph - N/A   Partly Cloudy
10:30 PM 82.4 °F 89.5 °F 75.2 °F 79% 29.80 in 6.2 mi Variable 1.2 mph - N/A   Partly Cloudy
11:00 PM 82.4 °F 90.9 °F 77.0 °F 84% 29.80 in 6.2 mi Variable 2.3 mph - N/A   Partly Cloudy
11:30 PM 80.6 °F 87.1 °F 77.0 °F 89% 29.77 in 6.2 mi NNE 3.5 mph - N/A   Partly Cloudy